Weather History for KHOT - April, 2014

Change the Weather History Date:

Tuesday, April 15, 2014

  Actual Average Record
Temperature  
Mean Temperature 46 °F -  
Max Temperature 61 °F 72 °F 89 °F (1992)
Min Temperature 32 °F 48 °F 32 °F (1983)
Degree Days  
Heating Degree Days 19    
Moisture  
Dew Point 26 °F    
Average Humidity 48    
Maximum Humidity 82    
Minimum Humidity 23    
Precipitation  
Precipitation 0.02 in - - ()
Sea Level Pressure  
Sea Level Pressure 30.21 in    
Wind  
Wind Speed 5 mph (North)    
Max Wind Speed 9 mph    
Max Gust Speed 17 mph    
Visibility 10 miles    
Events      
Averages and records for this station are not official NWS values.
T = Trace of Precipitation, MM = Missing Value Source: NWS Daily Summary

Daily Weather History Graph

Daily Weather History Graph

Search for Another Location

Airport or City:

Trip Planner

Search our weather history database for the weather conditions in past years. The results will help you decide how hot, cold, wet, or windy it might be!

Date:

Astronomy

Apr. 15, 2014 Rise Set
Actual Time 6:40 AM CDT 7:44 PM CDT
Civil Twilight 6:15 AM CDT 8:10 PM CDT
Nautical Twilight 5:44 AM CDT 8:41 PM CDT
Astronomical Twilight 5:12 AM CDT 9:12 PM CDT
Moon 8:24 PM CDT (4/15) 6:49 AM CDT (4/15)
Length of Visible Light 13h 55m
Length of Day
13h 03m
Full, 100% of the Moon is Illuminated
Apr 15
Full
Apr 22
Last Quarter
Apr 29
New
May 6
First Quarter
May 14
Full

Hourly Weather History & Observations

Time (CDT) Temp. Windchill Dew Point Humidity Pressure Visibility Wind Dir Wind Speed Gust Speed Precip Events Conditions
12:53 AM 41.0 °F 35.2 °F 27.0 °F 57% 30.16 in 10.0 mi North 9.2 mph 16.1 mph 0.01 in   Clear
1:53 AM 39.9 °F 36.7 °F 26.1 °F 58% 30.17 in 10.0 mi Variable 4.6 mph - 0.01 in   Clear
2:53 AM 39.0 °F 34.0 °F 23.0 °F 53% 30.19 in 10.0 mi NNW 6.9 mph - N/A   Clear
3:53 AM 37.9 °F - 23.0 °F 55% 30.20 in 10.0 mi Calm Calm - N/A   Clear
4:53 AM 36.0 °F 32.1 °F 25.0 °F 64% 30.21 in 10.0 mi NNW 4.6 mph - N/A   Clear
5:53 AM 34.0 °F 31.0 °F 26.1 °F 73% 30.22 in 10.0 mi NW 3.5 mph - N/A   Clear
6:53 AM 32.0 °F - 27.0 °F 82% 30.25 in 10.0 mi Calm Calm - N/A   Clear
7:53 AM 37.9 °F - 30.9 °F 76% 30.27 in 10.0 mi Calm Calm - N/A   Clear
8:53 AM 43.0 °F 40.3 °F 26.1 °F 51% 30.28 in 10.0 mi NW 4.6 mph - N/A   Clear
9:53 AM 45.0 °F - 24.1 °F 44% 30.29 in 10.0 mi Calm Calm - N/A   Clear
10:53 AM 50.0 °F - 24.1 °F 36% 30.27 in 10.0 mi Variable 4.6 mph - N/A   Clear
11:53 AM 52.0 °F - 24.1 °F 34% 30.27 in 10.0 mi NW 6.9 mph - N/A   Clear
12:53 PM 55.0 °F - 24.1 °F 30% 30.25 in 10.0 mi Variable 3.5 mph - N/A   Clear
1:53 PM 55.9 °F - 24.1 °F 29% 30.22 in 10.0 mi NW 8.1 mph 17.3 mph N/A   Clear
2:53 PM 57.9 °F - 24.1 °F 27% 30.21 in 10.0 mi Calm Calm - N/A   Clear
3:53 PM 60.1 °F - 24.1 °F 25% 30.18 in 10.0 mi West 9.2 mph - N/A   Clear
4:53 PM 59.0 °F - 21.0 °F 23% 30.15 in 10.0 mi Variable 3.5 mph - N/A   Clear
5:53 PM 60.1 °F - 21.9 °F 23% 30.14 in 10.0 mi NNW 3.5 mph - N/A   Clear
6:53 PM 59.0 °F - 21.9 °F 24% 30.14 in 10.0 mi Calm Calm - N/A   Clear
7:53 PM 53.1 °F - 28.9 °F 40% 30.16 in 10.0 mi Calm Calm - N/A   Clear
8:53 PM 48.9 °F - 30.9 °F 50% 30.18 in 10.0 mi East 4.6 mph - N/A   Clear
9:53 PM 45.0 °F 42.6 °F 32.0 °F 60% 30.20 in 10.0 mi East 4.6 mph - N/A   Clear
10:53 PM 44.1 °F 40.1 °F 33.1 °F 65% 30.21 in 10.0 mi East 6.9 mph - N/A   Clear
11:53 PM 44.1 °F 41.5 °F 33.1 °F 65% 30.21 in 10.0 mi East 4.6 mph - N/A   Clear